Whidbey Island, WA
on Friday, December 14, 2012

Friday
Previous Day Next Day
Daily Summary
 ActualAverageRecord
Temperature
Mean Temperature °F °F  
Max Temperature 42°F 44°F 57°F (2002)
Min Temperature 33°F 35°F 21°F (2000)
Degree Days
Heating Degree Days 28    
Moisture
Dew Point 35°F   
Average Humidity 85    
Maximum Humidity 89    
Minimum Humidity 76    
Precipitation
Precipitation 0.07 in in in ()
Wind
Wind Speed 8 mph   
Max Wind Speed 17 mph   
Max Gust Speed mph   
Visibility 9 miles   
Events Rain   
Averages and records for this station are not official NWS values.
Key: T is trace of precipitation, MM is missing value
Source: NWS Daily Summary
Seasonal Weather Averages
Time(PST)TemperatureDew PointHumidity Pressure Visibility Wind DirectionWind SpeedGust SpeedPrecipitationEvents Conditions
12:56 AM 39.9°F 37.0°F 89% 29.78 in 7.0 miles SE 12.7 mph - 0.02 in Rain Light Rain
1:56 AM 39.9°F 37.0°F 89% 29.79 in 6.0 miles SE 8.1 mph - 0.02 in Rain Light Rain
2:56 AM 39.9°F 37.0°F 89% 29.80 in 6.0 miles SSE 10.4 mph - 0.03 in Rain Light Rain
3:56 AM 39.9°F 37.0°F 89% 29.79 in 7.0 miles South 5.8 mph - 0.00 in   Overcast
4:34 AM 42.8°F 37.4°F 81% 29.78 in 10.0 miles WNW 17.3 mph - N/A   Overcast
4:56 AM 42.1°F 39.0°F 89% 29.80 in 7.0 miles NW 12.7 mph - N/A   Overcast
5:08 AM 41.0°F 37.4°F 87% 29.78 in 4.0 miles NNW 10.4 mph - 0.00 in Rain Light Rain
5:56 AM 39.9°F 37.0°F 89% 29.81 in 7.0 miles NNE 4.6 mph - 0.00 in   Overcast
6:56 AM 39.9°F 36.0°F 86% 29.83 in 8.0 miles NNE 3.5 mph - N/A   Overcast
7:56 AM 39.9°F 36.0°F 86% 29.85 in 8.0 miles NE 6.9 mph - N/A   Overcast
8:56 AM 39.9°F 36.0°F 86% 29.87 in 9.0 miles North 4.6 mph - N/A   Overcast
9:30 AM 39.2°F 35.6°F 87% 29.87 in 9.0 miles Calm Calm - N/A   Overcast
9:56 AM 41.0°F 37.0°F 86% 29.89 in 10.0 miles Calm Calm - N/A   Overcast
10:28 AM 42.8°F 37.4°F 81% 29.89 in 10.0 miles Calm Calm - N/A   Overcast
10:56 AM 42.1°F 36.0°F 79% 29.90 in 10.0 miles NW 5.8 mph - N/A   Overcast
11:26 AM 42.8°F 35.6°F 76% 29.89 in 10.0 miles NW 6.9 mph - 0.00 in Rain Light Rain
11:56 AM 42.1°F 36.0°F 79% 29.91 in 10.0 miles NW 13.8 mph - 0.00 in   Mostly Cloudy
12:56 PM 42.1°F 35.1°F 76% 29.91 in 10.0 miles NW 12.7 mph - N/A   Mostly Cloudy
1:56 PM 41.0°F 35.1°F 79% 29.92 in 10.0 miles NNW 10.4 mph - N/A   Scattered Clouds
2:56 PM 39.9°F 35.1°F 83% 29.93 in 10.0 miles NNW 4.6 mph - N/A   Mostly Cloudy
3:56 PM 41.0°F 34.0°F 76% 29.95 in 10.0 miles NNW 6.9 mph - N/A   Mostly Cloudy
4:56 PM 37.0°F 33.1°F 86% 29.95 in 10.0 miles East 4.6 mph - N/A   Mostly Cloudy
5:56 PM 34.0°F 30.0°F 85% 29.96 in 10.0 miles ESE 4.6 mph - N/A   Mostly Cloudy
6:56 PM 33.1°F 30.0°F 89% 29.95 in 10.0 miles ESE 4.6 mph - N/A   Scattered Clouds
7:56 PM 34.0°F 30.9°F 89% 29.95 in 10.0 miles ESE 5.8 mph - N/A   Mostly Cloudy
8:56 PM 34.0°F 30.9°F 89% 29.95 in 10.0 miles East 5.8 mph - N/A   Mostly Cloudy
9:56 PM 34.0°F 30.9°F 89% 29.94 in 10.0 miles ESE 9.2 mph - N/A   Overcast
10:56 PM 36.0°F 33.1°F 89% 29.93 in 10.0 miles ESE 9.2 mph - N/A   Mostly Cloudy
11:56 PM 36.0°F 32.0°F 86% 29.91 in 10.0 miles East 12.7 mph - N/A   Scattered Clouds
Moon Phase
Dec. 14 Dec. 20 Dec. 28 Jan. 04 Jan. 11
Sunrise:07:54 AM (PST) Moon Rise:08:59 AM (PST)12/14
Sunset:04:16 PM (PST) Moon Set:06:21 PM (PST)12/14

Copyright © 2014 The Weather Underground, Inc.